Showing default

OOV-CUBE, 60240

Orbit data source: Space-Track

OOV-CUBE, 60240 is a payload satellite owned by TUB (DE) in LEO that was launched on Tue, 09 Jul 2024 UTC via an ARIANE 62 launch vehicle from the French Guiana (FRGUI). Payload-class satellites include a variety of spacecraft equipped with specific instruments for various scientific and technological missions. These include communications satellites like Starlink; space stations such as the ISS; scientific satellites like the Hubble; Earth observation satellites from companies like Planet Labs, Umbra, and HawkEye 360; GPS; miniature CubeSats for education and research; and military/defense satellites.

Loading next visibility...
Identifier
60240, 2024-128F
Orbit
LEO
Country
Flag of DEDE / GER
Related business
Manufacturer
TUB
Mission
Operational Amateur Technology
Bus & Motor
TUBSAT, Unknown motor
Mass
17 kg wet, 17 kg dry
Launch date (UTC)
2024-07-09 (1 year ago)
Launch vehicle
ARIANE 62
Launch site
French Guiana (FRGUI)
Object type
Payload
Rocket body
Debris
Shape & HBR
Box, 0.1 m
Radar Cross Section
0.094 m², Small (<0.1 m²)

Expand to show TLE details & history
Last TLE update: 10 hours ago

TLE from 10 hours ago
0 OOV-CUBE
1 60240U 24128F   25260.95591744  .00002794  00000-0  22761-3 0  9991
2 60240  61.9944  93.5932 0058014  76.3708 284.3834 15.00806726 65229
Epoch: 2025-09-17T22:56Z
TLE epoch observation values (Epoch: 2025-09-17T22:56:31.266Z)
Latitude
-0.00001°
Longitude
112.33848°
Altitude
556.391 km
Speed
7.589 km/s
True Right ascension
06h 14m 22s
True Declination
0° 00' 00"
Sunlit
Object was in daylight at epoch
Visualization orbit readout
Latitude
Unknown
Longitude
Unknown
Altitude
Unknown
Speed
Unknown
Apparent Right ascension
Unknown
Apparent Declination
Unknown
Sunlit
N/A
Visualization observer readout
Local Sidereal Time
01:35:28
Azimuth
Unknown
Elevation
Unknown
Doppler factor
Unknown
Orbital elements
Apogee altitude
603.608 km
Perigee altitude
523.068 km
Semi-major axis
6,941.475 km
Eccentricity
0.0058
Inclination
61.9944°
RAAN
93.5932°
Arg. of periapsis
76.3708°
True anomaly
283.7383°
Mean anomaly
284.3834°
Eccentric anomaly
284.06096°
Mean motion
3.75289 °/min
Orbital period
95.93 mins
BSTAR
0.00022761
Loading maneuver chart data...
Computing Atmospheric mass density...
Loading historical data...
Loading historical data...
Loading historical data...
Loading historical data...
Loading historical data...
Loading historical data...
Loading historical data...

Documentation

Showing up to 5 results
|